Location: Ettringen
(48.1054°N, 10.6545°E)
Time: 22:08:25
(UTC+00:00)

Resurs 1-3 - Pass Details

Date: 18 November 2025
Orbit: 613 x 615 km, 97.7° (Epoch: 05 December)

Event Time Altitude Azimuth Distance (km) Brightness Sun altitude
Rises 16:56:09 0° 140° (SE) 2,874 6.7 -13.3°
Reaches altitude 10° 16:58:28 10° 131° (SE) 1,973 5.8 -13.6°
Maximum altitude 17:02:18 33° 68° (ENE) 1,046 4.2 -14.3°
Drops below altitude 10° 17:06:10 10° 4° (N) 1,985 6.0 -14.9°
Sets 17:08:31 0° 355° (N) 2,895 6.9 -15.3°
